Weather in Ploshchevo

Russia / Vladimir Oblast     56°15′30″N   38°27′01″E
temp.,
°C
wind,
m/s
gust,
m/s
humid.,
%
clouds,
%
prec.,
mm/h
press.,
hPa
HPBL,
m
3 march, wed
wed300:00−2nnw6129397 0.5 1010864
03:00−5nw5128863 0.5 1013510
06:00−6nw5139255 0.0 1014554
09:00−5nw5128458 0.0 1014903
12:00−2nw5108670 0.1 1014856
15:000wnw598685 0.2 10131006
18:00−1w51192100 0.3 1011866
21:00−1w51190100 0.3 10091040
4 march, thu
thu400:00−2wsw51393100 0.1 1005794
03:00+1w61491100 0.8 10021055
06:00+1w71597100 0.9 9991152
09:000nw71387100 2.1 9991075
12:000wnw6106889 0.0 10001178
15:00−1wnw477795 0.0 1000970
18:00−3nw2388100 0.1 100061
21:00−6n2594100 0.1 1001179
5 march, fri
fri500:00−8nnw239398 0.0 100242
03:00−10nnw229449 0.0 100332
06:00−11nw22940 0.0 100421
09:00−8w12910 0.0 1006106
12:00−4wsw119097 0.5 1006281
15:00−4nw478199 1.7 1008906
18:00−7wnw388996 0.1 1009266
21:00−10wnw379166 0.2 1012170
6 march, sat
sat600:00−11wnw23936 0.0 101380
03:00−11wnw269619 0.0 1015140
06:00−14nnw379347 0.0 1015203
09:00−14nnw368323 0.0 1016247
12:00−9nw467720 0.0 1016913
15:00−8nw367460 0.1 10161138
18:00−10w2588100 0.1 1015126
21:00−12wsw399084 0.1 1014208
7 march, sun
sun700:00−11sw4119221 0.0 1011286
03:00−9ssw6139057 0.0 1007696
06:00−7sw71592100 0.9 10011156
09:00−5sw81591100 2.5 9951197
12:00−2wsw81592100 1.5 9931224
15:00−5nw4863100 2.6 9931421
18:00−7sw6138970 0.3 9931138
21:00−9w3118881 0.4 994673